Location: Foligno
(42.9600°N, 12.7050°E)
Time: 21:23:10
(UTC+02:00)

ISS - Visible Passes

Search period start: 19 July 2018 00:00
Search period end: 29 July 2018 00:00
Orbit: 402 x 408 km, 51.6° (Epoch: 20 July)

Date Brightness Start Highest point End Pass type
(mag) Time Alt. Az. Time Alt. Az. Time Alt. Az.
19 Jul -0.9 01:32:08 10° NW 01:34:32 18° N 01:36:57 10° NE visible
19 Jul -1.2 03:09:10 10° NW 03:11:51 23° NNE 03:14:32 10° ENE visible
19 Jul -3.8 04:45:24 10° NW 04:48:43 86° NNE 04:52:01 10° ESE visible
19 Jul -2.2 21:27:05 10° S 21:29:08 16° SE 21:31:10 10° E visible
19 Jul -3.6 23:02:01 10° WSW 23:05:16 68° NNW 23:08:33 10° NE visible
20 Jul -1.1 00:39:38 10° WNW 00:42:13 21° NNW 00:44:49 10° NE visible
20 Jul -1.0 02:17:04 10° NW 02:19:32 19° N 02:22:01 10° ENE visible
20 Jul -2.9 03:53:22 10° NW 03:56:35 50° NNE 03:59:48 10° ESE visible
20 Jul -4.0 22:09:56 10° SW 22:13:11 67° SE 22:16:28 10° ENE visible
20 Jul -1.5 23:47:05 10° WNW 23:49:54 26° NNW 23:52:45 10° NE visible
21 Jul -0.8 01:24:51 10° NW 01:27:11 18° N 01:29:32 10° NE visible
21 Jul -2.0 03:01:22 10° NW 03:04:23 33° NNE 03:07:24 10° E visible
21 Jul -3.4 04:37:48 10° WNW 04:40:56 40° SW 04:44:02 10° SSE visible
21 Jul -3.2 21:18:09 10° SSW 21:21:10 35° SE 21:24:12 10° ENE visible
21 Jul -2.1 22:54:35 10° W 22:57:39 35° NNW 23:00:43 10° NE visible
22 Jul -0.9 00:32:28 10° NW 00:34:49 18° N 00:37:11 10° NE visible
22 Jul -1.4 02:09:20 10° NW 02:12:07 25° NNE 02:14:54 10° ENE visible
22 Jul -4.0 03:45:35 10° WNW 03:48:53 77° SW 03:52:10 10° SE visible
22 Jul -3.1 22:02:13 10° WSW 22:05:27 55° NNW 22:08:40 10° NE visible
22 Jul -1.0 23:39:56 10° WNW 23:42:26 20° N 23:44:57 10° NE visible
23 Jul -1.1 01:17:14 10° NW 01:19:46 20° N 01:20:50 17° NE visible
23 Jul -3.9 21:10:01 10° SW 21:13:17 84° SE 21:16:35 10° ENE visible
23 Jul -1.3 22:47:22 10° WNW 22:50:06 24° NNW 22:52:50 10° NE visible
24 Jul -0.9 00:25:01 10° NW 00:27:23 18° N 00:29:08 13° NE visible
24 Jul -0.8 02:01:26 10° NW 02:01:43 12° NW 02:01:43 12° NW visible
24 Jul -1.8 21:54:48 10° W 21:57:47 31° NNW 22:00:46 10° NE visible
24 Jul -0.9 23:32:39 10° NW 23:34:59 18° N 23:37:19 10° NE visible
25 Jul -1.1 01:09:22 10° NW 01:10:45 19° NNW 01:10:45 19° NNW visible
25 Jul -1.0 22:40:08 10° NW 22:42:34 19° N 22:45:00 10° NE visible
26 Jul -1.4 00:17:16 10° NW 00:19:53 21° NNE 00:19:58 21° NNE visible
26 Jul -1.2 21:47:32 10° WNW 21:50:10 22° NNW 21:52:49 10° NE visible
26 Jul -1.1 23:25:04 10° NW 23:27:28 19° N 23:29:17 13° NE visible
27 Jul -0.8 01:01:23 10° NW 01:01:54 14° NW 01:01:54 14° NW visible
27 Jul -1.0 22:32:43 10° NW 22:35:02 18° N 22:37:22 10° NE visible
28 Jul -1.5 00:09:18 10° NW 00:11:15 25° NNW 00:11:15 25° NNW visible
28 Jul -1.1 21:40:12 10° NW 21:42:35 18° N 21:44:57 10° NE visible
28 Jul -1.7 23:17:10 10° NW 23:19:53 23° NNE 23:20:40 21° NE visible
